Location: Alfords
(31.4624°N, 83.9238°W)
Time: 20:10:32
(UTC+00:00)

Envisat - Pass Details

Date: 20 September 2021
Orbit: 764 x 766 km, 98.2° (Epoch: 21 October)

Event Time Altitude Azimuth Distance (km) Brightness Sun altitude
Rises 10:27:10 0° 16° (NNE) 3,233 6.6 -12.7°
Reaches altitude 10° 10:29:30 10° 19° (NNE) 2,303 5.9 -12.2°
Maximum altitude 10:34:32 65° 101° (E) 841 3.5 -11.1°
Drops below altitude 10° 10:39:33 10° 183° (S) 2,290 5.4 -10.1°
Sets 10:41:51 0° 186° (S) 3,212 6.1 -9.6°
